Time,TemperatureF,DewpointF,PressureIn,WindDirection,WindDirectionDegrees,WindSpeedMPH,WindSpeedGustMPH,Humidity,HourlyPrecipIn,Conditions,Clouds,dailyrainin,SoftwareType,DateUTC
2013-03-31 00:03:00,39.4,18.2,27.52,WNW,291,4.5,4.5,42,0.00,,---,0.00,VWS V14.01,2013-03-31 05:03:00,
2013-03-31 00:08:00,39.4,18.2,27.52,WNW,294,4.0,4.0,42,0.00,,---,0.00,VWS V14.01,2013-03-31 05:08:00,
2013-03-31 00:13:00,39.2,18.0,27.52,WNW,301,4.9,4.9,42,0.00,,---,0.00,VWS V14.01,2013-03-31 05:13:00,
2013-03-31 00:18:00,38.8,17.7,27.52,WNW,295,3.1,3.1,42,0.00,,---,0.00,VWS V14.01,2013-03-31 05:18:00,
2013-03-31 00:23:00,38.8,17.7,27.52,WNW,292,3.1,3.1,42,0.00,,---,0.00,VWS V14.01,2013-03-31 05:23:00,
2013-03-31 00:28:00,38.5,17.4,27.52,West,277,3.6,3.6,42,0.00,,---,0.00,VWS V14.01,2013-03-31 05:28:00,
2013-03-31 00:33:00,38.5,17.9,27.52,WNW,287,3.1,3.6,43,0.00,,---,0.00,VWS V14.01,2013-03-31 05:33:00,
2013-03-31 00:38:00,38.5,17.9,27.52,WNW,290,4.0,4.0,43,0.00,,---,0.00,VWS V14.01,2013-03-31 05:38:00,
2013-03-31 00:43:00,38.7,18.1,27.52,WNW,289,3.1,3.6,43,0.00,,---,0.00,VWS V14.01,2013-03-31 05:43:00,
2013-03-31 00:48:00,38.5,17.9,27.52,WNW,284,3.6,3.6,43,0.00,,---,0.00,VWS V14.01,2013-03-31 05:48:00,
2013-03-31 00:53:00,38.1,17.6,27.52,WNW,283,4.0,4.0,43,0.00,,---,0.00,VWS V14.01,2013-03-31 05:53:00,
2013-03-31 00:58:00,37.9,17.5,27.52,West,269,2.7,2.7,43,0.00,,---,0.00,VWS V14.01,2013-03-31 05:58:00,
2013-03-31 01:03:00,37.2,16.8,27.52,West,269,0.0,0.0,43,0.00,,---,0.00,VWS V14.01,2013-03-31 06:03:00,
2013-03-31 01:08:00,36.9,16.5,27.52,NNW,330,0.0,2.7,43,0.00,,---,0.00,VWS V14.01,2013-03-31 06:08:00,
2013-03-31 01:13:00,36.7,16.3,27.52,NNW,330,0.0,0.0,43,0.00,,---,0.00,VWS V14.01,2013-03-31 06:13:00,
2013-03-31 01:18:00,36.5,16.7,27.52,NW,309,2.7,2.7,44,0.00,,---,0.00,VWS V14.01,2013-03-31 06:18:00,
2013-03-31 01:23:00,36.9,17.0,27.52,NW,310,3.1,3.1,44,0.00,,---,0.00,VWS V14.01,2013-03-31 06:23:00,
2013-03-31 01:28:00,37.0,17.7,27.52,WNW,292,4.0,4.0,45,0.00,,---,0.00,VWS V14.01,2013-03-31 06:28:00,
2013-03-31 01:33:00,36.9,17.5,27.52,WNW,293,3.6,4.9,45,0.00,,---,0.00,VWS V14.01,2013-03-31 06:33:00,
2013-03-31 01:38:00,36.9,17.5,27.52,WNW,286,3.1,4.0,45,0.00,,---,0.00,VWS V14.01,2013-03-31 06:38:00,
2013-03-31 01:43:00,36.3,17.0,27.52,NW,310,3.6,3.6,45,0.00,,---,0.00,VWS V14.01,2013-03-31 06:43:00,
2013-03-31 01:48:00,36.9,17.5,27.52,NW,304,4.0,4.0,45,0.00,,---,0.00,VWS V14.01,2013-03-31 06:48:00,
2013-03-31 01:53:00,36.9,18.0,27.52,WNW,292,3.1,3.6,46,0.00,,---,0.00,VWS V14.01,2013-03-31 06:53:00,
2013-03-31 01:58:00,37.0,18.2,27.52,NW,313,4.0,4.0,46,0.00,,---,0.00,VWS V14.01,2013-03-31 06:58:00,
2013-03-31 02:03:00,37.0,18.7,27.52,NW,309,3.1,3.1,47,0.00,,---,0.00,VWS V14.01,2013-03-31 07:03:00,
2013-03-31 02:08:00,37.2,18.9,27.52,NW,306,4.0,4.0,47,0.00,,---,0.00,VWS V14.01,2013-03-31 07:08:00,
2013-03-31 02:14:00,37.8,19.4,27.52,WNW,303,3.1,7.2,47,0.00,,---,0.00,VWS V14.01,2013-03-31 07:14:00,
2013-03-31 02:19:00,37.9,19.5,27.52,WNW,297,3.6,3.6,47,0.00,,---,0.00,VWS V14.01,2013-03-31 07:19:00,
2013-03-31 02:24:00,37.8,19.4,27.52,NW,305,3.6,3.6,47,0.00,,---,0.00,VWS V14.01,2013-03-31 07:24:00,
2013-03-31 02:29:00,37.8,18.9,27.49,WNW,298,3.6,3.6,46,0.00,,---,0.00,VWS V14.01,2013-03-31 07:29:00,
2013-03-31 02:34:00,37.9,19.0,27.49,West,276,2.7,4.0,46,0.00,,---,0.00,VWS V14.01,2013-03-31 07:34:00,
2013-03-31 02:39:00,37.6,18.7,27.49,WNW,282,3.6,4.9,46,0.00,,---,0.00,VWS V14.01,2013-03-31 07:39:00,
2013-03-31 02:44:00,37.4,18.5,27.49,WNW,296,2.7,3.6,46,0.00,,---,0.00,VWS V14.01,2013-03-31 07:44:00,
2013-03-31 02:49:00,37.4,18.5,27.52,WNW,299,5.8,5.8,46,0.00,,---,0.00,VWS V14.01,2013-03-31 07:49:00,
2013-03-31 02:54:00,37.2,18.4,27.52,WNW,300,3.1,4.9,46,0.00,,---,0.00,VWS V14.01,2013-03-31 07:54:00,
2013-03-31 02:59:00,37.0,18.2,27.52,WNW,289,3.1,4.0,46,0.00,,---,0.00,VWS V14.01,2013-03-31 07:59:00,
2013-03-31 03:04:00,36.9,18.0,27.52,WNW,298,3.6,4.0,46,0.00,,---,0.00,VWS V14.01,2013-03-31 08:04:00,
2013-03-31 03:09:00,36.9,18.0,27.52,West,279,3.6,3.6,46,0.00,,---,0.00,VWS V14.01,2013-03-31 08:09:00,
2013-03-31 03:14:00,36.5,17.7,27.52,WNW,295,3.6,3.6,46,0.00,,---,0.00,VWS V14.01,2013-03-31 08:14:00,
2013-03-31 03:19:00,36.3,17.0,27.52,WNW,285,3.1,4.9,45,0.00,,---,0.00,VWS V14.01,2013-03-31 08:19:00,
2013-03-31 03:25:00,36.1,17.4,27.52,NW,315,3.6,5.8,46,0.00,,---,0.00,VWS V14.01,2013-03-31 08:25:00,
2013-03-31 03:30:00,36.1,17.4,27.52,WNW,285,5.8,5.8,46,0.00,,---,0.00,VWS V14.01,2013-03-31 08:30:00,
2013-03-31 03:36:00,35.8,17.0,27.52,WNW,282,5.4,5.4,46,0.00,,---,0.00,VWS V14.01,2013-03-31 08:36:00,
2013-03-31 03:41:00,35.6,16.4,27.52,NW,304,4.9,4.9,45,0.00,,---,0.00,VWS V14.01,2013-03-31 08:41:00,
2013-03-31 03:46:00,35.4,16.2,27.52,WNW,292,4.0,4.9,45,0.00,,---,0.00,VWS V14.01,2013-03-31 08:46:00,
2013-03-31 03:52:00,35.2,16.0,27.52,NW,309,4.9,4.9,45,0.00,,---,0.00,VWS V14.01,2013-03-31 08:52:00,
2013-03-31 03:57:00,34.7,15.0,27.52,WNW,298,3.1,3.6,44,0.00,,---,0.00,VWS V14.01,2013-03-31 08:57:00,
2013-03-31 04:02:00,34.2,14.5,27.52,WNW,298,2.7,2.7,44,0.00,,---,0.00,VWS V14.01,2013-03-31 09:02:00,
2013-03-31 04:07:00,33.6,14.1,27.52,WNW,301,3.1,3.6,44,0.00,,---,0.00,VWS V14.01,2013-03-31 09:07:00,
2013-03-31 04:12:00,33.8,14.7,27.52,WNW,302,3.6,3.6,45,0.00,,---,0.00,VWS V14.01,2013-03-31 09:12:00,
2013-03-31 04:17:00,33.6,14.6,27.52,WNW,299,2.7,4.0,45,0.00,,---,0.00,VWS V14.01,2013-03-31 09:17:00,
2013-03-31 04:22:00,33.3,14.2,27.52,WNW,294,4.0,4.0,45,0.00,,---,0.00,VWS V14.01,2013-03-31 09:22:00,
2013-03-31 04:27:00,33.1,14.1,27.52,WNW,284,2.7,3.1,45,0.00,,---,0.00,VWS V14.01,2013-03-31 09:27:00,
2013-03-31 04:33:00,32.9,13.9,27.52,WNW,284,3.1,3.1,45,0.00,,---,0.00,VWS V14.01,2013-03-31 09:33:00,
2013-03-31 04:38:00,32.7,13.7,27.52,WNW,284,3.1,3.6,45,0.00,,---,0.00,VWS V14.01,2013-03-31 09:38:00,
2013-03-31 04:43:00,33.1,14.6,27.52,WNW,284,3.1,3.1,46,0.00,,---,0.00,VWS V14.01,2013-03-31 09:43:00,
2013-03-31 04:48:00,33.3,14.7,27.52,WNW,284,4.0,4.0,46,0.00,,---,0.00,VWS V14.01,2013-03-31 09:48:00,
2013-03-31 04:53:00,33.3,14.7,27.52,WNW,303,4.5,4.5,46,0.00,,---,0.00,VWS V14.01,2013-03-31 09:53:00,
2013-03-31 04:58:00,33.6,15.6,27.52,WNW,286,5.4,5.4,47,0.00,,---,0.00,VWS V14.01,2013-03-31 09:58:00,
2013-03-31 05:03:00,33.4,15.4,27.52,NW,304,5.4,5.4,47,0.00,,---,0.00,VWS V14.01,2013-03-31 10:03:00,
2013-03-31 05:08:00,33.4,15.4,27.52,WNW,290,4.9,4.9,47,0.00,,---,0.00,VWS V14.01,2013-03-31 10:08:00,
2013-03-31 05:13:00,33.3,15.2,27.52,WNW,297,3.6,3.6,47,0.00,,---,0.00,VWS V14.01,2013-03-31 10:13:00,
2013-03-31 05:18:00,33.1,15.1,27.52,NW,304,4.0,4.0,47,0.00,,---,0.00,VWS V14.01,2013-03-31 10:18:00,
2013-03-31 05:24:00,32.9,14.9,27.52,NW,305,5.4,6.3,47,0.00,,---,0.00,VWS V14.01,2013-03-31 10:24:00,
2013-03-31 05:29:00,32.7,14.7,27.52,WNW,292,4.0,5.8,47,0.00,,---,0.00,VWS V14.01,2013-03-31 10:29:00,
2013-03-31 05:34:00,32.5,14.6,27.52,WNW,288,2.7,4.9,47,0.00,,---,0.00,VWS V14.01,2013-03-31 10:34:00,
2013-03-31 05:39:00,32.5,14.6,27.52,WSW,256,3.1,3.1,47,0.00,,---,0.00,VWS V14.01,2013-03-31 10:39:00,
2013-03-31 05:44:00,32.5,14.1,27.52,WNW,299,3.1,3.1,46,0.00,,---,0.00,VWS V14.01,2013-03-31 10:44:00,
2013-03-31 05:49:00,32.4,13.9,27.52,NW,305,3.6,3.6,46,0.00,,---,0.00,VWS V14.01,2013-03-31 10:49:00,
2013-03-31 05:54:00,32.7,14.7,27.52,WNW,296,3.1,4.9,47,0.00,,---,0.00,VWS V14.01,2013-03-31 10:54:00,
2013-03-31 05:59:00,32.7,14.7,27.52,WNW,295,5.4,5.8,47,0.00,,---,0.00,VWS V14.01,2013-03-31 10:59:00,
2013-03-31 06:04:00,32.5,14.6,27.52,NW,308,4.0,4.0,47,0.00,,---,0.00,VWS V14.01,2013-03-31 11:04:00,
2013-03-31 06:10:00,32.2,14.2,27.52,WNW,300,2.7,4.0,47,0.00,,---,0.00,VWS V14.01,2013-03-31 11:10:00,
2013-03-31 06:15:00,31.8,13.9,27.52,WNW,293,2.7,4.0,47,0.00,,---,0.00,VWS V14.01,2013-03-31 11:15:00,
2013-03-31 06:20:00,31.5,13.1,27.52,WNW,293,2.7,3.1,46,0.00,,---,0.00,VWS V14.01,2013-03-31 11:20:00,
2013-03-31 06:25:00,30.9,12.1,27.52,WNW,293,3.1,3.1,45,0.00,,---,0.00,VWS V14.01,2013-03-31 11:25:00,
2013-03-31 06:30:00,30.7,12.4,27.52,WNW,300,0.0,2.2,46,0.00,,---,0.00,VWS V14.01,2013-03-31 11:30:00,
2013-03-31 06:35:00,31.1,12.8,27.52,WNW,301,3.1,3.1,46,0.00,,---,0.00,VWS V14.01,2013-03-31 11:35:00,
2013-03-31 06:40:00,30.6,12.3,27.52,WNW,301,3.1,3.1,46,0.00,,---,0.00,VWS V14.01,2013-03-31 11:40:00,
2013-03-31 06:45:00,30.4,12.1,27.52,WNW,301,3.6,3.6,46,0.00,,---,0.00,VWS V14.01,2013-03-31 11:45:00,
2013-03-31 06:50:00,30.7,12.4,27.52,WNW,295,3.6,3.6,46,0.00,,---,0.00,VWS V14.01,2013-03-31 11:50:00,
2013-03-31 06:55:00,30.0,12.2,27.52,WNW,295,2.7,3.6,47,0.00,,---,0.00,VWS V14.01,2013-03-31 11:55:00,
2013-03-31 07:00:00,30.0,12.2,27.52,WNW,293,3.1,4.0,47,0.00,,---,0.00,VWS V14.01,2013-03-31 12:00:00,
2013-03-31 07:05:00,29.5,11.3,27.52,WNW,294,2.7,2.7,46,0.00,,---,0.00,VWS V14.01,2013-03-31 12:05:00,
2013-03-31 07:10:00,29.1,10.9,27.52,NW,306,2.7,2.7,46,0.00,,---,0.00,VWS V14.01,2013-03-31 12:10:00,
2013-03-31 07:15:00,28.9,10.8,27.52,NW,304,3.6,3.6,46,0.00,,---,0.00,VWS V14.01,2013-03-31 12:15:00,
2013-03-31 07:20:00,29.1,11.4,27.52,WNW,298,3.6,3.6,47,0.00,,---,0.00,VWS V14.01,2013-03-31 12:20:00,
2013-03-31 07:25:00,29.5,11.8,27.52,WNW,303,2.7,2.7,47,0.00,,---,0.00,VWS V14.01,2013-03-31 12:25:00,
2013-03-31 07:30:00,29.5,11.8,27.52,WNW,303,3.1,3.1,47,0.00,,---,0.00,VWS V14.01,2013-03-31 12:30:00,
2013-03-31 07:35:00,29.7,11.9,27.52,WNW,287,4.9,4.9,47,0.00,,---,0.00,VWS V14.01,2013-03-31 12:35:00,
2013-03-31 07:40:00,29.3,11.6,27.52,WNW,287,0.0,0.0,47,0.00,,---,0.00,VWS V14.01,2013-03-31 12:40:00,
2013-03-31 07:46:00,28.6,9.9,27.52,WNW,287,0.0,0.0,45,0.00,,---,0.00,VWS V14.01,2013-03-31 12:46:00,
2013-03-31 07:51:00,28.8,10.1,27.52,WNW,287,0.0,0.0,45,0.00,,---,0.00,VWS V14.01,2013-03-31 12:51:00,
2013-03-31 07:56:00,29.7,10.4,27.52,WNW,287,0.0,0.0,44,0.00,,---,0.00,VWS V14.01,2013-03-31 12:56:00,
2013-03-31 08:01:00,30.9,11.1,27.52,WNW,300,2.2,2.2,43,0.00,,---,0.00,VWS V14.01,2013-03-31 13:01:00,
2013-03-31 08:06:00,31.8,11.4,27.52,WNW,299,0.0,0.0,42,0.00,,---,0.00,VWS V14.01,2013-03-31 13:06:00,
2013-03-31 08:11:00,32.2,11.1,27.52,WNW,299,0.0,0.0,41,0.00,,---,0.00,VWS V14.01,2013-03-31 13:11:00,
2013-03-31 08:17:00,32.5,11.5,27.52,WSW,247,4.0,4.0,41,0.00,,---,0.00,VWS V14.01,2013-03-31 13:17:00,
2013-03-31 08:23:00,33.6,12.4,27.52,WSW,245,0.0,0.0,41,0.00,,---,0.00,VWS V14.01,2013-03-31 13:23:00,
2013-03-31 08:30:00,34.5,12.7,27.52,West,271,0.0,2.7,40,0.00,,---,0.00,VWS V14.01,2013-03-31 13:30:00,
2013-03-31 08:35:00,35.6,13.7,27.52,West,276,0.0,0.0,40,0.00,,---,0.00,VWS V14.01,2013-03-31 13:35:00,
2013-03-31 08:40:00,36.5,14.5,27.52,West,274,2.7,2.7,40,0.00,,---,0.00,VWS V14.01,2013-03-31 13:40:00,
2013-03-31 08:45:00,36.0,14.0,27.52,WSW,251,0.0,3.1,40,0.00,,---,0.00,VWS V14.01,2013-03-31 13:45:00,
2013-03-31 08:50:00,37.2,15.1,27.52,West,276,0.0,0.0,40,0.00,,---,0.00,VWS V14.01,2013-03-31 13:50:00,
2013-03-31 08:55:00,37.4,14.7,27.52,WNW,283,2.7,2.7,39,0.00,,---,0.00,VWS V14.01,2013-03-31 13:55:00,
2013-03-31 09:01:00,38.7,15.9,27.52,WNW,282,3.6,4.0,39,0.00,,---,0.00,VWS V14.01,2013-03-31 14:01:00,
2013-03-31 09:06:00,38.7,15.9,27.52,WNW,285,2.7,3.1,39,0.00,,---,0.00,VWS V14.01,2013-03-31 14:06:00,
2013-03-31 09:11:00,38.7,16.4,27.52,NW,304,2.7,3.1,40,0.00,,---,0.00,VWS V14.01,2013-03-31 14:11:00,
2013-03-31 09:16:00,38.8,16.6,27.52,West,274,0.0,4.9,40,0.00,,---,0.00,VWS V14.01,2013-03-31 14:16:00,
2013-03-31 09:21:00,39.4,16.5,27.52,West,260,4.0,4.0,39,0.00,,---,0.00,VWS V14.01,2013-03-31 14:21:00,
2013-03-31 09:26:00,40.6,17.6,27.52,West,278,3.1,3.1,39,0.00,,---,0.00,VWS V14.01,2013-03-31 14:26:00,
2013-03-31 09:32:00,42.1,18.9,27.52,WNW,300,2.7,5.4,39,0.00,,---,0.00,VWS V14.01,2013-03-31 14:32:00,
2013-03-31 09:37:00,43.2,19.3,27.52,WNW,286,3.1,3.1,38,0.00,,---,0.00,VWS V14.01,2013-03-31 14:37:00,
2013-03-31 09:42:00,43.9,19.9,27.52,SW,215,5.4,7.2,38,0.00,,---,0.00,VWS V14.01,2013-03-31 14:42:00,
2013-03-31 09:48:00,44.1,20.1,27.52,WSW,248,4.0,4.0,38,0.00,,---,0.00,VWS V14.01,2013-03-31 14:48:00,
2013-03-31 09:53:00,44.4,20.4,27.52,SW,233,3.6,3.6,38,0.00,,---,0.00,VWS V14.01,2013-03-31 14:53:00,
2013-03-31 09:58:00,44.6,20.6,27.49,WNW,291,5.4,5.4,38,0.00,,---,0.00,VWS V14.01,2013-03-31 14:58:00,
2013-03-31 10:03:00,45.3,21.2,27.49,WSW,258,5.4,5.4,38,0.00,,---,0.00,VWS V14.01,2013-03-31 15:03:00,
2013-03-31 10:08:00,45.7,21.5,27.49,West,279,2.7,4.9,38,0.00,,---,0.00,VWS V14.01,2013-03-31 15:08:00,
2013-03-31 10:13:00,45.1,21.1,27.49,WSW,237,4.9,6.7,38,0.00,,---,0.00,VWS V14.01,2013-03-31 15:13:00,
2013-03-31 10:18:00,46.0,21.9,27.49,WSW,252,4.9,4.9,38,0.00,,---,0.00,VWS V14.01,2013-03-31 15:18:00,
2013-03-31 10:23:00,48.9,23.8,27.49,WSW,257,4.0,4.0,37,0.00,,---,0.00,VWS V14.01,2013-03-31 15:23:00,
2013-03-31 10:28:00,49.3,24.1,27.49,WNW,292,4.0,5.4,37,0.00,,---,0.00,VWS V14.01,2013-03-31 15:28:00,
2013-03-31 10:33:00,49.5,24.3,27.49,WSW,241,3.1,4.5,37,0.00,,---,0.00,VWS V14.01,2013-03-31 15:33:00,
2013-03-31 10:38:00,50.9,24.9,27.49,WNW,297,5.4,5.4,36,0.00,,---,0.00,VWS V14.01,2013-03-31 15:38:00,
2013-03-31 10:43:00,52.5,26.4,27.49,NW,319,2.7,2.7,36,0.00,,---,0.00,VWS V14.01,2013-03-31 15:43:00,
2013-03-31 10:48:00,51.8,25.7,27.49,WNW,299,3.1,3.6,36,0.00,,---,0.00,VWS V14.01,2013-03-31 15:48:00,
2013-03-31 10:53:00,51.6,25.6,27.49,WNW,300,3.6,3.6,36,0.00,,---,0.00,VWS V14.01,2013-03-31 15:53:00,
2013-03-31 10:59:00,51.8,25.7,27.49,West,263,5.4,5.4,36,0.00,,---,0.00,VWS V14.01,2013-03-31 15:59:00,
2013-03-31 11:04:00,56.5,29.2,27.49,NW,325,2.2,2.2,35,0.00,,---,0.00,VWS V14.01,2013-03-31 16:04:00,
2013-03-31 11:09:00,55.9,28.7,27.49,West,272,2.7,4.9,35,0.00,,---,0.00,VWS V14.01,2013-03-31 16:09:00,
2013-03-31 11:14:00,55.9,28.7,27.49,WNW,291,3.6,3.6,35,0.00,,---,0.00,VWS V14.01,2013-03-31 16:14:00,
2013-03-31 11:19:00,56.5,29.2,27.49,WSW,252,5.4,5.4,35,0.00,,---,0.00,VWS V14.01,2013-03-31 16:19:00,
2013-03-31 11:24:00,56.5,29.2,27.49,WNW,295,4.9,6.3,35,0.00,,---,0.00,VWS V14.01,2013-03-31 16:24:00,
2013-03-31 11:29:00,59.4,31.0,27.46,NNW,341,3.6,4.0,34,0.00,,---,0.00,VWS V14.01,2013-03-31 16:29:00,
2013-03-31 11:34:00,59.5,31.9,27.46,WNW,302,2.2,2.2,35,0.00,,---,0.00,VWS V14.01,2013-03-31 16:34:00,
2013-03-31 11:39:00,56.8,29.5,27.46,West,260,3.1,7.6,35,0.00,,---,0.00,VWS V14.01,2013-03-31 16:39:00,
2013-03-31 11:44:00,57.6,30.1,27.46,NW,309,5.4,5.4,35,0.00,,---,0.00,VWS V14.01,2013-03-31 16:44:00,
2013-03-31 11:49:00,59.2,31.6,27.46,SW,222,6.3,6.3,35,0.00,,---,0.00,VWS V14.01,2013-03-31 16:49:00,
2013-03-31 11:54:00,60.6,32.8,27.46,SW,229,3.1,3.1,35,0.00,,---,0.00,VWS V14.01,2013-03-31 16:54:00,
2013-03-31 11:59:00,62.2,33.5,27.46,WNW,293,2.7,2.7,34,0.00,,---,0.00,VWS V14.01,2013-03-31 16:59:00,
2013-03-31 12:04:00,61.2,32.6,27.46,WNW,293,4.0,4.0,34,0.00,,---,0.00,VWS V14.01,2013-03-31 17:04:00,
2013-03-31 12:09:00,61.5,32.9,27.46,SW,230,7.6,7.6,34,0.00,,---,0.00,VWS V14.01,2013-03-31 17:09:00,
2013-03-31 12:14:00,59.4,31.7,27.46,SSE,151,2.2,2.2,35,0.00,,---,0.00,VWS V14.01,2013-03-31 17:14:00,
2013-03-31 12:19:00,61.2,32.6,27.46,West,271,5.8,5.8,34,0.00,,---,0.00,VWS V14.01,2013-03-31 17:19:00,
2013-03-31 12:24:00,59.7,32.0,27.46,SW,228,4.0,4.9,35,0.00,,---,0.00,VWS V14.01,2013-03-31 17:24:00,
2013-03-31 12:29:00,59.4,31.7,27.46,SW,226,10.1,10.1,35,0.00,,---,0.00,VWS V14.01,2013-03-31 17:29:00,
2013-03-31 12:34:00,60.1,32.4,27.46,WSW,241,6.3,6.3,35,0.00,,---,0.00,VWS V14.01,2013-03-31 17:34:00,
2013-03-31 12:40:00,60.4,32.7,27.46,NW,307,5.8,5.8,35,0.00,,---,0.00,VWS V14.01,2013-03-31 17:40:00,
2013-03-31 12:45:00,60.1,32.4,27.46,WSW,242,6.3,6.3,35,0.00,,---,0.00,VWS V14.01,2013-03-31 17:45:00,
2013-03-31 12:50:00,61.3,32.8,27.46,South,171,8.7,8.7,34,0.00,,---,0.00,VWS V14.01,2013-03-31 17:50:00,
2013-03-31 12:54:00,60.8,32.3,27.46,SSW,200,8.7,8.7,34,0.00,,---,0.00,VWS V14.01,2013-03-31 17:54:00,
2013-03-31 13:00:00,60.4,32.7,27.43,SW,218,4.9,8.1,35,0.00,,---,0.00,VWS V14.01,2013-03-31 18:00:00,
2013-03-31 13:05:00,60.1,32.4,27.43,SSW,207,12.8,13.2,35,0.00,,---,0.00,VWS V14.01,2013-03-31 18:05:00,
2013-03-31 13:10:00,61.7,33.1,27.43,West,271,5.4,8.7,34,0.00,,---,0.00,VWS V14.01,2013-03-31 18:10:00,
2013-03-31 13:15:00,61.7,33.1,27.43,SSW,198,3.6,7.2,34,0.00,,---,0.00,VWS V14.01,2013-03-31 18:15:00,
2013-03-31 13:20:00,62.6,33.9,27.43,SW,222,4.0,5.4,34,0.00,,---,0.00,VWS V14.01,2013-03-31 18:20:00,
2013-03-31 13:25:00,63.5,34.7,27.43,WSW,241,8.1,8.1,34,0.00,,---,0.00,VWS V14.01,2013-03-31 18:25:00,
2013-03-31 13:30:00,62.1,33.4,27.43,SW,223,5.4,8.7,34,0.00,,---,0.00,VWS V14.01,2013-03-31 18:30:00,
2013-03-31 13:35:00,62.8,34.0,27.43,WSW,242,13.2,13.2,34,0.00,,---,0.00,VWS V14.01,2013-03-31 18:35:00,
2013-03-31 13:42:00,64.2,35.3,27.43,SW,235,8.7,8.7,34,0.00,,---,0.00,VWS V14.01,2013-03-31 18:42:00,
2013-03-31 13:47:00,64.0,35.1,27.43,WNW,300,8.1,8.1,34,0.00,,---,0.00,VWS V14.01,2013-03-31 18:47:00,
2013-03-31 13:52:00,63.5,34.7,27.43,West,279,5.4,8.7,34,0.00,,---,0.00,VWS V14.01,2013-03-31 18:52:00,
2013-03-31 13:57:00,63.9,35.0,27.43,SW,225,5.8,5.8,34,0.00,,---,0.00,VWS V14.01,2013-03-31 18:57:00,
2013-03-31 14:02:00,65.5,35.6,27.40,SSW,205,8.1,8.1,33,0.00,,---,0.00,VWS V14.01,2013-03-31 19:02:00,
2013-03-31 14:07:00,66.7,36.8,27.40,WNW,297,4.0,4.0,33,0.00,,---,0.00,VWS V14.01,2013-03-31 19:07:00,
2013-03-31 14:12:00,65.8,36.0,27.40,WNW,284,7.6,7.6,33,0.00,,---,0.00,VWS V14.01,2013-03-31 19:12:00,
2013-03-31 14:18:00,65.5,35.6,27.40,WSW,246,4.0,5.8,33,0.00,,---,0.00,VWS V14.01,2013-03-31 19:18:00,
2013-03-31 14:23:00,66.0,36.1,27.40,South,183,4.9,11.0,33,0.00,,---,0.00,VWS V14.01,2013-03-31 19:23:00,
2013-03-31 14:28:00,64.9,35.2,27.40,SSW,196,10.5,10.5,33,0.00,,---,0.00,VWS V14.01,2013-03-31 19:28:00,
2013-03-31 14:33:00,66.2,36.3,27.40,WSW,257,5.8,5.8,33,0.00,,---,0.00,VWS V14.01,2013-03-31 19:33:00,
2013-03-31 14:38:00,65.3,35.5,27.40,WSW,239,13.6,13.6,33,0.00,,---,0.00,VWS V14.01,2013-03-31 19:38:00,
2013-03-31 14:43:00,64.4,34.7,27.40,SSW,211,8.3,8.7,33,0.00,,---,0.00,VWS V14.01,2013-03-31 19:43:00,
2013-03-31 14:48:00,66.0,36.1,27.40,SW,231,10.1,10.1,33,0.00,,---,0.00,VWS V14.01,2013-03-31 19:48:00,
2013-03-31 14:53:00,66.4,36.4,27.40,SW,226,8.7,8.7,33,0.00,,---,0.00,VWS V14.01,2013-03-31 19:53:00,
2013-03-31 14:58:00,66.9,36.9,27.40,SSW,201,11.0,11.0,33,0.00,,---,0.00,VWS V14.01,2013-03-31 19:58:00,
2013-03-31 15:03:00,67.3,37.2,27.40,SW,236,10.1,10.1,33,0.00,,---,0.00,VWS V14.01,2013-03-31 20:03:00,
2013-03-31 15:08:00,68.2,38.0,27.40,SW,222,7.6,7.6,33,0.00,,---,0.00,VWS V14.01,2013-03-31 20:08:00,
2013-03-31 15:13:00,66.9,36.9,27.40,SW,214,8.7,12.3,33,0.00,,---,0.00,VWS V14.01,2013-03-31 20:13:00,
2013-03-31 15:19:00,68.2,38.0,27.37,SW,226,3.1,7.2,33,0.00,,---,0.00,VWS V14.01,2013-03-31 20:19:00,
2013-03-31 15:24:00,66.7,36.8,27.37,SW,235,12.3,12.3,33,0.00,,---,0.00,VWS V14.01,2013-03-31 20:24:00,
2013-03-31 15:29:00,68.0,37.8,27.37,SW,236,6.3,8.7,33,0.00,,---,0.00,VWS V14.01,2013-03-31 20:29:00,
2013-03-31 15:34:00,67.5,37.4,27.37,West,259,8.3,8.3,33,0.00,,---,0.00,VWS V14.01,2013-03-31 20:34:00,
2013-03-31 15:39:00,68.2,38.0,27.37,WSW,249,8.3,8.3,33,0.00,,---,0.00,VWS V14.01,2013-03-31 20:39:00,
2013-03-31 15:44:00,68.4,38.2,27.37,SW,235,9.2,9.2,33,0.00,,---,0.00,VWS V14.01,2013-03-31 20:44:00,
2013-03-31 15:49:00,70.2,39.0,27.37,SW,218,8.3,10.1,32,0.00,,---,0.00,VWS V14.01,2013-03-31 20:49:00,
2013-03-31 15:54:00,70.3,39.1,27.37,WNW,292,7.2,7.2,32,0.00,,---,0.00,VWS V14.01,2013-03-31 20:54:00,
2013-03-31 15:59:00,66.2,36.3,27.37,WSW,237,10.1,10.1,33,0.00,,---,0.00,VWS V14.01,2013-03-31 20:59:00,
2013-03-31 16:04:00,69.8,38.6,27.37,SW,227,8.3,15.0,32,0.00,,---,0.00,VWS V14.01,2013-03-31 21:04:00,
2013-03-31 16:09:00,69.4,39.1,27.37,West,277,7.6,11.4,33,0.00,,---,0.00,VWS V14.01,2013-03-31 21:09:00,
2013-03-31 16:14:00,69.1,38.8,27.34,WSW,243,8.3,14.1,33,0.00,,---,0.00,VWS V14.01,2013-03-31 21:14:00,
2013-03-31 16:19:00,67.6,37.5,27.34,West,268,5.8,5.8,33,0.00,,---,0.00,VWS V14.01,2013-03-31 21:19:00,
2013-03-31 16:24:00,69.1,38.8,27.34,WSW,254,5.8,10.5,33,0.00,,---,0.00,VWS V14.01,2013-03-31 21:24:00,
2013-03-31 16:29:00,69.1,38.8,27.34,South,186,16.3,16.3,33,0.00,,---,0.00,VWS V14.01,2013-03-31 21:29:00,
2013-03-31 16:34:00,66.0,36.1,27.34,SSW,212,7.6,7.6,33,0.00,,---,0.00,VWS V14.01,2013-03-31 21:34:00,
2013-03-31 16:39:00,67.8,37.7,27.34,West,273,4.0,4.0,33,0.00,,---,0.00,VWS V14.01,2013-03-31 21:39:00,
2013-03-31 16:44:00,66.7,36.8,27.34,WSW,241,7.6,7.6,33,0.00,,---,0.00,VWS V14.01,2013-03-31 21:44:00,
2013-03-31 16:49:00,68.9,38.6,27.34,West,271,10.5,10.5,33,0.00,,---,0.00,VWS V14.01,2013-03-31 21:49:00,
2013-03-31 16:55:00,70.3,39.1,27.34,WSW,251,3.6,5.4,32,0.00,,---,0.00,VWS V14.01,2013-03-31 21:55:00,
2013-03-31 17:00:00,69.3,39.0,27.34,SW,224,5.8,8.1,33,0.00,,---,0.00,VWS V14.01,2013-03-31 22:00:00,
2013-03-31 17:05:00,65.8,36.0,27.34,SW,228,8.3,8.3,33,0.00,,---,0.00,VWS V14.01,2013-03-31 22:05:00,
2013-03-31 17:10:00,65.7,35.8,27.34,West,262,4.0,5.4,33,0.00,,---,0.00,VWS V14.01,2013-03-31 22:10:00,
2013-03-31 17:15:00,66.7,36.8,27.34,SW,214,7.6,8.7,33,0.00,,---,0.00,VWS V14.01,2013-03-31 22:15:00,
2013-03-31 17:20:00,66.6,36.6,27.34,WSW,244,12.3,12.3,33,0.00,,---,0.00,VWS V14.01,2013-03-31 22:20:00,
2013-03-31 17:25:00,66.0,36.1,27.34,WSW,237,6.7,8.1,33,0.00,,---,0.00,VWS V14.01,2013-03-31 22:25:00,
2013-03-31 17:30:00,65.8,36.0,27.32,SSW,211,14.1,14.1,33,0.00,,---,0.00,VWS V14.01,2013-03-31 22:30:00,
2013-03-31 17:35:00,65.5,35.6,27.32,SSW,212,5.8,5.8,33,0.00,,---,0.00,VWS V14.01,2013-03-31 22:35:00,
2013-03-31 17:40:00,65.5,35.6,27.32,SW,224,3.6,8.1,33,0.00,,---,0.00,VWS V14.01,2013-03-31 22:40:00,
2013-03-31 17:45:00,65.3,35.5,27.32,SW,216,10.5,10.5,33,0.00,,---,0.00,VWS V14.01,2013-03-31 22:45:00,
2013-03-31 17:50:00,65.1,35.3,27.32,SW,231,8.1,8.1,33,0.00,,---,0.00,VWS V14.01,2013-03-31 22:50:00,
2013-03-31 17:55:00,64.9,35.2,27.32,SW,232,8.1,8.1,33,0.00,,---,0.00,VWS V14.01,2013-03-31 22:55:00,
2013-03-31 18:00:00,64.9,35.2,27.32,SSW,210,5.4,5.4,33,0.00,,---,0.00,VWS V14.01,2013-03-31 23:00:00,
2013-03-31 18:05:00,64.8,35.0,27.32,SW,227,8.1,8.1,33,0.00,,---,0.00,VWS V14.01,2013-03-31 23:05:00,
2013-03-31 18:10:00,65.3,35.5,27.32,SW,232,6.3,6.3,33,0.00,,---,0.00,VWS V14.01,2013-03-31 23:10:00,
2013-03-31 18:16:00,64.9,35.2,27.32,SW,231,3.6,3.6,33,0.00,,---,0.00,VWS V14.01,2013-03-31 23:16:00,
2013-03-31 18:20:00,64.6,34.8,27.32,West,261,2.7,2.7,33,0.00,,---,0.00,VWS V14.01,2013-03-31 23:20:00,
2013-03-31 18:25:00,64.6,34.8,27.32,West,280,3.1,3.1,33,0.00,,---,0.00,VWS V14.01,2013-03-31 23:25:00,
2013-03-31 18:30:00,64.2,35.3,27.32,WSW,252,3.1,3.1,34,0.00,,---,0.00,VWS V14.01,2013-03-31 23:30:00,
2013-03-31 18:35:00,64.2,35.3,27.32,West,265,0.0,0.0,34,0.00,,---,0.00,VWS V14.01,2013-03-31 23:35:00,
2013-03-31 18:40:00,64.0,35.1,27.32,West,265,0.0,0.0,34,0.00,,---,0.00,VWS V14.01,2013-03-31 23:40:00,
2013-03-31 18:46:00,64.0,35.1,27.32,West,265,0.0,0.0,34,0.00,,---,0.00,VWS V14.01,2013-03-31 23:46:00,
2013-03-31 18:50:00,64.0,35.1,27.32,West,266,2.7,2.7,34,0.00,,---,0.00,VWS V14.01,2013-03-31 23:50:00,
2013-03-31 18:56:00,64.0,35.1,27.32,West,268,0.0,0.0,34,0.00,,---,0.00,VWS V14.01,2013-03-31 23:56:00,
2013-03-31 19:00:00,64.4,34.7,27.32,West,268,0.0,0.0,33,0.00,,---,0.00,VWS V14.01,2013-04-01 00:00:00,
2013-03-31 19:06:00,66.0,36.1,27.32,NW,320,2.7,3.1,33,0.00,,---,0.00,VWS V14.01,2013-04-01 00:06:00,
2013-03-31 19:10:00,66.0,36.1,27.32,NW,320,0.0,0.0,33,0.00,,---,0.00,VWS V14.01,2013-04-01 00:10:00,
2013-03-31 19:15:00,65.1,35.3,27.32,NW,307,2.7,2.7,33,0.00,,---,0.00,VWS V14.01,2013-04-01 00:15:00,
2013-03-31 19:20:00,66.0,36.1,27.32,WNW,293,3.6,3.6,33,0.00,,---,0.00,VWS V14.01,2013-04-01 00:20:00,
2013-03-31 19:25:00,65.3,35.5,27.32,North,0,3.6,3.6,33,0.00,,---,0.00,VWS V14.01,2013-04-01 00:25:00,
2013-03-31 19:30:00,64.6,34.8,27.32,NW,321,5.8,5.8,33,0.00,,---,0.00,VWS V14.01,2013-04-01 00:30:00,
2013-03-31 19:35:00,64.6,34.8,27.32,North,353,8.3,8.3,33,0.00,,---,0.00,VWS V14.01,2013-04-01 00:35:00,
2013-03-31 19:40:00,62.6,33.9,27.32,North,357,6.3,6.3,34,0.00,,---,0.00,VWS V14.01,2013-04-01 00:40:00,
2013-03-31 19:45:00,61.7,33.1,27.34,North,11,7.2,7.2,34,0.00,,---,0.00,VWS V14.01,2013-04-01 00:45:00,
2013-03-31 19:50:00,61.0,32.4,27.34,NNE,14,8.7,10.1,34,0.00,,---,0.00,VWS V14.01,2013-04-01 00:50:00,
2013-03-31 19:55:00,59.5,31.9,27.34,NNE,30,8.7,8.7,35,0.00,,---,0.00,VWS V14.01,2013-04-01 00:55:00,
2013-03-31 20:00:00,57.6,30.1,27.34,NNE,15,7.6,7.6,35,0.00,,---,0.00,VWS V14.01,2013-04-01 01:00:00,
2013-03-31 20:05:00,57.6,30.1,27.34,NNE,18,7.2,7.2,35,0.00,,---,0.00,VWS V14.01,2013-04-01 01:05:00,
2013-03-31 20:10:00,55.9,28.7,27.34,NNE,13,8.7,8.7,35,0.00,,---,0.00,VWS V14.01,2013-04-01 01:10:00,
2013-03-31 20:15:00,54.9,28.4,27.34,NNE,32,7.6,7.6,36,0.00,,---,0.00,VWS V14.01,2013-04-01 01:15:00,
2013-03-31 20:20:00,54.9,28.4,27.34,NNE,15,10.1,10.5,36,0.00,,---,0.00,VWS V14.01,2013-04-01 01:20:00,
2013-03-31 20:25:00,54.9,28.4,27.37,NNE,14,7.2,7.2,36,0.00,,---,0.00,VWS V14.01,2013-04-01 01:25:00,
2013-03-31 20:31:00,52.9,26.7,27.40,NNE,16,10.1,10.5,36,0.00,,---,0.00,VWS V14.01,2013-04-01 01:31:00,
2013-03-31 20:35:00,50.5,24.6,27.40,North,8,10.5,10.5,36,0.00,,---,0.00,VWS V14.01,2013-04-01 01:35:00,
2013-03-31 20:40:00,49.6,24.5,27.40,North,10,10.1,10.1,37,0.00,,---,0.00,VWS V14.01,2013-04-01 01:40:00,
2013-03-31 20:45:00,49.6,24.5,27.40,NNE,15,7.6,7.6,37,0.00,,---,0.00,VWS V14.01,2013-04-01 01:45:00,
2013-03-31 20:50:00,48.4,23.3,27.40,NNE,14,8.3,8.7,37,0.00,,---,0.00,VWS V14.01,2013-04-01 01:50:00,
2013-03-31 20:55:00,47.8,22.9,27.40,North,11,8.7,8.7,37,0.00,,---,0.00,VWS V14.01,2013-04-01 01:55:00,
2013-03-31 21:00:00,46.8,21.9,27.40,NNE,16,9.2,9.2,37,0.00,,---,0.00,VWS V14.01,2013-04-01 02:00:00,
2013-03-31 21:05:00,46.4,21.6,27.43,NNE,19,7.6,7.6,37,0.00,,---,0.00,VWS V14.01,2013-04-01 02:05:00,
2013-03-31 21:10:00,46.4,21.6,27.43,NNE,19,8.7,8.7,37,0.00,,---,0.00,VWS V14.01,2013-04-01 02:10:00,
2013-03-31 21:15:00,45.0,20.9,27.43,NNE,17,8.3,8.3,38,0.00,,---,0.00,VWS V14.01,2013-04-01 02:15:00,
2013-03-31 21:20:00,44.1,20.1,27.43,North,6,7.6,8.3,38,0.00,,---,0.00,VWS V14.01,2013-04-01 02:20:00,
2013-03-31 21:25:00,43.5,19.6,27.43,NNE,21,8.3,8.3,38,0.00,,---,0.00,VWS V14.01,2013-04-01 02:25:00,
2013-03-31 21:30:00,43.3,19.5,27.43,NNE,30,7.6,8.7,38,0.00,,---,0.00,VWS V14.01,2013-04-01 02:30:00,
2013-03-31 21:35:00,43.2,19.3,27.46,NNE,27,7.6,12.8,38,0.00,,---,0.00,VWS V14.01,2013-04-01 02:35:00,
2013-03-31 21:40:00,42.6,18.8,27.46,NNE,20,11.4,11.4,38,0.00,,---,0.00,VWS V14.01,2013-04-01 02:40:00,
2013-03-31 21:45:00,42.1,18.3,27.46,NNE,25,8.7,8.7,38,0.00,,---,0.00,VWS V14.01,2013-04-01 02:45:00,
2013-03-31 21:50:00,41.5,17.8,27.46,NNE,15,8.3,8.3,38,0.00,,---,0.00,VWS V14.01,2013-04-01 02:50:00,
2013-03-31 21:55:00,41.5,17.8,27.46,NNE,14,8.3,8.3,38,0.00,,---,0.00,VWS V14.01,2013-04-01 02:55:00,
2013-03-31 22:00:00,41.0,17.4,27.49,North,357,8.7,9.2,38,0.00,,---,0.00,VWS V14.01,2013-04-01 03:00:00,
2013-03-31 22:05:00,40.6,17.6,27.49,NNE,25,7.6,7.6,39,0.00,,---,0.00,VWS V14.01,2013-04-01 03:05:00,
2013-03-31 22:10:00,40.5,17.5,27.49,North,6,8.1,8.1,39,0.00,,---,0.00,VWS V14.01,2013-04-01 03:10:00,
2013-03-31 22:15:00,40.1,17.1,27.49,NNE,19,7.6,8.7,39,0.00,,---,0.00,VWS V14.01,2013-04-01 03:15:00,
2013-03-31 22:20:00,40.1,17.1,27.49,NNE,20,7.6,8.7,39,0.00,,---,0.00,VWS V14.01,2013-04-01 03:20:00,
2013-03-31 22:25:00,39.0,16.2,27.49,North,8,7.6,7.6,39,0.00,,---,0.00,VWS V14.01,2013-04-01 03:25:00,
2013-03-31 22:30:00,38.8,16.0,27.52,NNE,27,8.1,8.1,39,0.00,,---,0.00,VWS V14.01,2013-04-01 03:30:00,
2013-03-31 22:35:00,38.7,15.9,27.52,NE,43,8.1,8.1,39,0.00,,---,0.00,VWS V14.01,2013-04-01 03:35:00,
2013-03-31 22:40:00,38.7,15.9,27.52,NNE,22,8.7,8.7,39,0.00,,---,0.00,VWS V14.01,2013-04-01 03:40:00,
2013-03-31 22:46:00,38.7,15.9,27.52,NE,36,7.6,7.6,39,0.00,,---,0.00,VWS V14.01,2013-04-01 03:46:00,
2013-03-31 22:50:00,38.5,15.7,27.52,NNE,29,5.4,5.4,39,0.00,,---,0.00,VWS V14.01,2013-04-01 03:50:00,
2013-03-31 22:56:00,38.1,15.4,27.52,NNE,14,5.8,5.8,39,0.00,,---,0.00,VWS V14.01,2013-04-01 03:56:00,
2013-03-31 23:00:00,37.9,15.2,27.52,NNE,23,6.3,6.3,39,0.00,,---,0.00,VWS V14.01,2013-04-01 04:00:00,
2013-03-31 23:05:00,37.8,15.0,27.52,NNE,19,4.0,4.0,39,0.00,,---,0.00,VWS V14.01,2013-04-01 04:05:00,
2013-03-31 23:10:00,37.4,14.7,27.55,NNE,28,7.6,7.6,39,0.00,,---,0.00,VWS V14.01,2013-04-01 04:10:00,
2013-03-31 23:12:00,37.4,14.7,27.52,NNE,15,8.1,8.1,39,0.00,,---,0.00,VWS V14.01,2013-04-01 04:12:00,
2013-03-31 23:17:00,37.0,15.0,27.52,NNE,28,5.4,7.6,40,0.00,,---,0.00,VWS V14.01,2013-04-01 04:17:00,
2013-03-31 23:22:00,36.7,14.6,27.52,NE,37,5.8,5.8,40,0.00,,---,0.00,VWS V14.01,2013-04-01 04:22:00,
2013-03-31 23:27:00,36.7,14.6,27.52,NE,43,5.4,5.8,40,0.00,,---,0.00,VWS V14.01,2013-04-01 04:27:00,
2013-03-31 23:32:00,36.5,14.5,27.52,NNE,16,5.4,5.4,40,0.00,,---,0.00,VWS V14.01,2013-04-01 04:32:00,
2013-03-31 23:37:00,36.3,14.3,27.52,NNE,28,5.4,5.4,40,0.00,,---,0.00,VWS V14.01,2013-04-01 04:37:00,
2013-03-31 23:42:00,36.0,14.0,27.52,NNE,33,5.4,5.4,40,0.00,,---,0.00,VWS V14.01,2013-04-01 04:42:00,
2013-03-31 23:47:00,35.6,13.7,27.55,NNE,21,4.9,4.9,40,0.00,,---,0.00,VWS V14.01,2013-04-01 04:47:00,
2013-03-31 23:52:00,35.6,13.7,27.55,NNE,27,4.0,6.3,40,0.00,,---,0.00,VWS V14.01,2013-04-01 04:52:00,
2013-03-31 23:57:00,35.4,13.5,27.55,NNE,17,5.4,5.4,40,0.00,,---,0.00,VWS V14.01,2013-04-01 04:57:00,